Total_Precipitation_Accumulation
1.64 1.90 2.25 2.62 2.85 3.02 3.06 3.20 3.22 2.79 2.20 1.69 1.19 0.91 0.78 0.65 0.50 0.38 0.38 0.42 0.40 0.44 0.51 0.41 0.42 0.39 0.35 0.39 0.41 0.46 0.47 0.44 0.42 0.49 0.54 0.45 0.39 0.40 0.38 0.39 0.45 0.51 0.61
1.18 1.30 1.50 1.81 1.90 2.10 2.33 2.52 2.57 2.27 1.69 1.37 1.09 0.94 0.83 0.68 0.54 0.41 0.36 0.34 0.33 0.35 0.39 0.46 0.36 0.35 0.36 0.37 0.37 0.41 0.39 0.33 0.35 0.44 0.48 0.45 0.45 0.41 0.24 0.33 0.38 0.42 0.55
0.77 0.81 0.90 1.10 1.39 1.80 1.89 1.83 1.89 1.85 1.53 1.30 1.13 1.00 0.90 0.75 0.60 0.47 0.37 0.29 0.28 0.30 0.32 0.34 0.34 0.36 0.31 0.36 0.44 0.41 0.39 0.32 0.27 0.32 0.40 0.41 0.40 0.41 0.37 0.35 0.35 0.41 0.55
0.44 0.56 0.62 0.73 0.95 1.22 1.43 1.58 1.61 1.57 1.32 1.12 0.95 0.80 0.64 0.52 0.42 0.38 0.37 0.33 0.30 0.27 0.24 0.22 0.26 0.32 0.32 0.41 0.33 0.35 0.39 0.37 0.28 0.26 0.27 0.26 0.28 0.34 0.40 0.39 0.34 0.37 0.45
0.21 0.34 0.44 0.54 0.65 0.82 1.09 1.33 1.55 1.65 1.33 1.04 0.86 0.76 0.64 0.53 0.47 0.42 0.44 0.38 0.36 0.32 0.26 0.23 0.24 0.24 0.26 0.32 0.34 0.41 0.38 0.38 0.34 0.26 0.23 0.23 0.21 0.21 0.23 0.32 0.35 0.33 0.26
0.13 0.22 0.29 0.40 0.55 0.66 0.80 0.99 1.21 1.40 1.29 1.08 0.88 0.79 0.72 0.63 0.53 0.43 0.40 0.38 0.39 0.38 0.35 0.32 0.32 0.32 0.27 0.24 0.26 0.30 0.37 0.42 0.43 0.34 0.25 0.27 0.24 0.19 0.19 0.16 0.19 0.26 0.19
0.08 0.12 0.17 0.23 0.38 0.47 0.51 0.60 0.81 0.97 0.99 0.93 0.85 0.78 0.81 0.78 0.68 0.57 0.47 0.42 0.38 0.38 0.38 0.36 0.37 0.38 0.37 0.32 0.27 0.23 0.27 0.35 0.40 0.38 0.32 0.25 0.19 0.20 0.22 0.19 0.13 0.14 0.13
0.06 0.07 0.09 0.16 0.24 0.30 0.36 0.43 0.55 0.68 0.74 0.73 0.73 0.70 0.68 0.63 0.65 0.67 0.57 0.50 0.46 0.41 0.38 0.36 0.34 0.35 0.38 0.39 0.36 0.30 0.28 0.29 0.32 0.34 0.39 0.33 0.17 0.17 0.22 0.23 0.23 0.22 0.18
0.08 0.06 0.08 0.12 0.15 0.19 0.25 0.30 0.41 0.52 0.56 0.58 0.61 0.60 0.61 0.56 0.55 0.53 0.49 0.43 0.49 0.48 0.43 0.37 0.35 0.36 0.37 0.39 0.40 0.39 0.37 0.34 0.30 0.33 0.40 0.38 0.27 0.19 0.17 0.22 0.28 0.33 0.29
0.08 0.09 0.11 0.12 0.13 0.17 0.23 0.26 0.33 0.41 0.46 0.50 0.50 0.51 0.61 0.62 0.64 0.57 0.50 0.42 0.39 0.38 0.40 0.40 0.37 0.34 0.37 0.40 0.43 0.47 0.52 0.52 0.46 0.40 0.42 0.43 0.39 0.35 0.27 0.25 0.28 0.33 0.35
0.07 0.09 0.10 0.10 0.11 0.16 0.19 0.20 0.29 0.37 0.42 0.48 0.51 0.54 0.57 0.61 0.66 0.66 0.62 0.54 0.47 0.41 0.38 0.39 0.36 0.32 0.32 0.35 0.38 0.42 0.53 0.65 0.72 0.66 0.58 0.53 0.52 0.50 0.43 0.39 0.36 0.36 0.39
0.08 0.09 0.10 0.09 0.08 0.13 0.16 0.18 0.22 0.27 0.29 0.39 0.51 0.51 0.56 0.64 0.63 0.61 0.68 0.67 0.63 0.58 0.53 0.48 0.44 0.38 0.32 0.33 0.35 0.38 0.43 0.57 0.73 0.87 0.88 0.76 0.67 0.63 0.54 0.49 0.46 0.45 0.49
0.10 0.10 0.12 0.16 0.12 0.13 0.16 0.20 0.24 0.28 0.31 0.39 0.49 0.57 0.61 0.69 0.72 0.70 0.71 0.74 0.72 0.68 0.68 0.65 0.61 0.56 0.50 0.46 0.45 0.44 0.43 0.46 0.55 0.70 0.88 0.94 0.89 0.76 0.69 0.62 0.55 0.53 0.51
0.12 0.13 0.16 0.19 0.16 0.15 0.20 0.23 0.29 0.34 0.42 0.54 0.64 0.68 0.75 0.84 0.87 0.81 0.81 0.81 0.82 0.81 0.82 0.85 0.77 0.67 0.61 0.58 0.59 0.58 0.57 0.58 0.58 0.60 0.66 0.79 0.93 0.89 0.81 0.73 0.68 0.65 0.67
0.17 0.21 0.28 0.29 0.29 0.28 0.28 0.31 0.42 0.52 0.67 0.83 0.87 0.85 0.87 0.92 0.98 1.01 1.03 1.06 1.11 1.10 1.10 1.04 0.96 0.89 0.82 0.74 0.80 0.88 0.86 0.86 0.75 0.66 0.61 0.60 0.69 0.79 0.82 0.74 0.70 0.72 0.73
0.25 0.27 0.37 0.45 0.46 0.44 0.46 0.55 0.66 0.82 1.02 1.23 1.26 1.28 1.29 1.30 1.34 1.34 1.32 1.36 1.36 1.34 1.26 1.19 1.17 1.12 0.99 1.00 0.96 0.91 0.90 0.96 0.94 0.83 0.73 0.63 0.57 0.59 0.66 0.72 0.73 0.73 0.71
0.37 0.36 0.45 0.58 0.65 0.64 0.63 0.72 0.82 0.99 1.16 1.25 1.23 1.24 1.31 1.37 1.39 1.39 1.40 1.36 1.35 1.32 1.24 1.25 1.27 1.22 1.17 1.03 0.84 0.71 0.71 0.76 0.80 0.83 0.79 0.60 0.47 0.52 0.56 0.65 0.66 0.64 0.59
0.38 0.44 0.54 0.59 0.64 0.69 0.71 0.80 0.86 0.88 1.03 1.09 1.09 1.08 1.09 1.11 1.14 1.21 1.22 1.21 1.22 1.21 1.17 1.13 1.03 0.96 0.86 0.76 0.64 0.58 0.61 0.64 0.62 0.70 0.77 0.71 0.61 0.55 0.57 0.56 0.52 0.51 0.49
0.43 0.48 0.55 0.55 0.59 0.62 0.67 0.68 0.72 0.76 0.83 0.87 0.89 0.86 0.89 0.92 0.97 1.03 1.11 1.16 1.12 1.02 0.92 0.85 0.82 0.80 0.78 0.76 0.60 0.53 0.57 0.62 0.58 0.59 0.62 0.65 0.60 0.52 0.43 0.44 0.41 0.39 0.39
0.36 0.46 0.57 0.56 0.53 0.53 0.56 0.57 0.61 0.65 0.71 0.79 0.86 0.84 0.84 0.86 0.88 0.92 0.95 0.93 0.90 0.84 0.79 0.74 0.71 0.72 0.73 0.72 0.55 0.48 0.54 0.59 0.58 0.60 0.64 0.68 0.60 0.47 0.35 0.39 0.43 0.37 0.32
0.32 0.39 0.49 0.59 0.57 0.57 0.58 0.62 0.60 0.60 0.62 0.69 0.75 0.75 0.74 0.75 0.76 0.78 0.79 0.81 0.83 0.79 0.72 0.65 0.63 0.65 0.63 0.57 0.41 0.36 0.42 0.49 0.51 0.50 0.52 0.61 0.56 0.43 0.31 0.33 0.38 0.33 0.34
0.23 0.31 0.39 0.48 0.55 0.60 0.64 0.66 0.61 0.59 0.59 0.67 0.69 0.66 0.65 0.66 0.66 0.66 0.67 0.68 0.70 0.67 0.62 0.59 0.59 0.62 0.62 0.48 0.36 0.25 0.27 0.36 0.44 0.54 0.56 0.62 0.60 0.46 0.37 0.32 0.31 0.26 0.24
0.17 0.20 0.26 0.36 0.43 0.54 0.62 0.68 0.67 0.65 0.65 0.69 0.70 0.65 0.62 0.65 0.68 0.71 0.72 0.72 0.70 0.68 0.62 0.57 0.48 0.46 0.51 0.48 0.30 0.21 0.19 0.27 0.40 0.61 0.76 0.79 0.74 0.62 0.51 0.44 0.41 0.32 0.27
0.17 0.19 0.26 0.32 0.35 0.41 0.50 0.59 0.65 0.70 0.72 0.70 0.65 0.61 0.60 0.61 0.66 0.75 0.79 0.79 0.77 0.72 0.64 0.58 0.52 0.49 0.51 0.51 0.46 0.38 0.31 0.31 0.39 0.58 0.75 0.86 0.91 0.85 0.73 0.64 0.58 0.44 0.37
0.23 0.25 0.28 0.30 0.32 0.36 0.41 0.49 0.57 0.63 0.65 0.66 0.63 0.60 0.57 0.58 0.61 0.65 0.67 0.63 0.63 0.59 0.54 0.49 0.48 0.50 0.51 0.46 0.39 0.36 0.35 0.33 0.36 0.49 0.74 0.93 1.06 1.10 1.07 0.95 0.84 0.72 0.60
0.32 0.32 0.34 0.34 0.32 0.35 0.39 0.41 0.48 0.60 0.67 0.68 0.63 0.58 0.54 0.54 0.54 0.55 0.56 0.56 0.49 0.46 0.42 0.41 0.38 0.36 0.37 0.35 0.29 0.26 0.26 0.26 0.31 0.47 0.72 0.93 1.10 1.17 1.27 1.27 1.18 1.01 0.85